TPC2112 -KLAL

Flight info

Callsign TPC2112
Flight time N/A
Altitude
Route
Aircraft

Departure

Time N/A
Airport -

Arrival

Time 2026-04-22 01:50
Airport Lakeland Linder International Airport (KLAL)
Time Latitude Longitude Altitude Speed Heading
2026-04-22 00:29 28.02664 -81.47208 4487 ft 114 kts 17°
2026-04-22 00:30 28.03456 -81.47103 4487 ft 115 kts 15°
2026-04-22 00:30 28.04259 -81.46998 4483 ft 116 kts 15°
2026-04-22 00:30 28.05061 -81.46894 4476 ft 116 kts 17°
2026-04-22 00:30 28.05864 -81.46788 4480 ft 117 kts 15°
2026-04-22 00:31 28.06675 -81.46681 4474 ft 117 kts 17°
2026-04-22 00:31 28.07481 -81.46575 4477 ft 116 kts 17°
2026-04-22 00:31 28.08288 -81.46469 4479 ft 118 kts 16°
2026-04-22 00:31 28.09100 -81.46361 4479 ft 118 kts 15°
2026-04-22 00:32 28.09912 -81.46254 4476 ft 117 kts 15°
2026-04-22 00:32 28.10727 -81.46145 4474 ft 120 kts 17°
2026-04-22 00:32 28.11562 -81.46034 4470 ft 121 kts 16°
2026-04-22 00:32 28.12387 -81.45926 4470 ft 121 kts 16°
2026-04-22 00:33 28.13231 -81.45814 4475 ft 123 kts 14°
2026-04-22 00:33 28.14075 -81.45703 4473 ft 120 kts 15°
2026-04-22 00:33 28.14900 -81.45596 4468 ft 119 kts 15°
2026-04-22 00:33 28.15719 -81.45488 4475 ft 120 kts 17°
2026-04-22 00:34 28.16549 -81.45377 4471 ft 119 kts 15°
2026-04-22 00:34 28.17364 -81.45270 4474 ft 117 kts 17°
2026-04-22 00:34 28.18183 -81.45162 4482 ft 120 kts 18°
2026-04-22 00:34 28.19007 -81.45053 4473 ft 119 kts 15°
2026-04-22 00:35 28.19829 -81.44944 4481 ft 121 kts 16°
2026-04-22 00:35 28.20557 -81.44845 4472 ft 120 kts 14°
2026-04-22 00:35 28.21381 -81.44738 4472 ft 119 kts 16°
2026-04-22 00:35 28.22203 -81.44629 4472 ft 119 kts 17°
2026-04-22 00:36 28.23222 -81.44495 4477 ft 119 kts 16°
2026-04-22 00:36 28.24048 -81.44384 4473 ft 120 kts 15°
2026-04-22 00:36 28.24873 -81.44274 4476 ft 119 kts 14°
2026-04-22 00:37 28.25416 -81.44204 4473 ft 118 kts 16°
2026-04-22 00:37 28.26239 -81.44094 4482 ft 121 kts 15°
2026-04-22 00:37 28.27068 -81.43986 4475 ft 118 kts 14°
2026-04-22 00:37 28.27875 -81.43878 4479 ft 119 kts 17°
2026-04-22 00:38 28.28639 -81.43797 4474 ft 123 kts
2026-04-22 00:38 28.29497 -81.44080 4477 ft 135 kts 340°
2026-04-22 00:38 28.30302 -81.44646 4478 ft 136 kts 338°
2026-04-22 00:38 28.31085 -81.45191 4475 ft 134 kts 336°
2026-04-22 00:39 28.31811 -81.45694 4482 ft 133 kts 336°
2026-04-22 00:39 28.32606 -81.46245 4480 ft 134 kts 336°
2026-04-22 00:39 28.33405 -81.46799 4477 ft 135 kts 336°
2026-04-22 00:39 28.34208 -81.47359 4475 ft 135 kts 338°
2026-04-22 00:40 28.35007 -81.47913 4474 ft 133 kts 340°
2026-04-22 00:40 28.35788 -81.48437 4478 ft 131 kts 337°
2026-04-22 00:40 28.36264 -81.49343 4463 ft 145 kts 275°
2026-04-22 00:40 28.36114 -81.50474 4478 ft 146 kts 259°
2026-04-22 00:41 28.35937 -81.51609 4479 ft 146 kts 259°
2026-04-22 00:41 28.35773 -81.52741 4417 ft 147 kts 264°
2026-04-22 00:41 28.35671 -81.53910 4243 ft 151 kts 266°
2026-04-22 00:41 28.35644 -81.55112 3979 ft 154 kts 271°
2026-04-22 00:42 28.35674 -81.56329 3787 ft 154 kts 269°
2026-04-22 00:42 28.35656 -81.57548 3561 ft 154 kts 268°
2026-04-22 00:42 28.35624 -81.58744 3425 ft 146 kts 268°
2026-04-22 00:42 28.35573 -81.59857 3405 ft 139 kts 265°
2026-04-22 00:43 28.35446 -81.60935 3318 ft 138 kts 262°
2026-04-22 00:43 28.35391 -81.62040 3159 ft 143 kts 271°
2026-04-22 00:43 28.35276 -81.63165 3085 ft 143 kts 256°
2026-04-22 00:43 28.35040 -81.64257 3032 ft 143 kts 255°
2026-04-22 00:44 28.34915 -81.65387 2943 ft 145 kts 269°
2026-04-22 00:44 28.34890 -81.66531 2883 ft 145 kts 272°
2026-04-22 00:44 28.34901 -81.67660 2859 ft 142 kts 271°
2026-04-22 00:44 28.34926 -81.68762 2790 ft 139 kts 272°
2026-04-22 00:45 28.34980 -81.69867 2668 ft 141 kts 275°
2026-04-22 00:45 28.35065 -81.70973 2585 ft 139 kts 276°
2026-04-22 00:45 28.35163 -81.72054 2581 ft 137 kts 278°
2026-04-22 00:45 28.35281 -81.73123 2514 ft 137 kts 280°
2026-04-22 00:46 28.35464 -81.74190 2467 ft 139 kts 286°
2026-04-22 00:46 28.35698 -81.75268 2379 ft 143 kts 287°
2026-04-22 00:46 28.35772 -81.76435 2115 ft 151 kts 264°
2026-04-22 00:46 28.35460 -81.77535 1992 ft 143 kts 242°
2026-04-22 00:47 28.35051 -81.78502 1854 ft 133 kts 237°
2026-04-22 00:47 28.34560 -81.79409 1523 ft 140 kts 225°
2026-04-22 00:47 28.33782 -81.80099 1093 ft 143 kts 198°
2026-04-22 00:47 28.32964 -81.80434 1386 ft 110 kts 193°
2026-04-22 00:48 28.32228 -81.80771 1497 ft 119 kts 204°
2026-04-22 00:48 28.31552 -81.81271 1823 ft 119 kts 207°
2026-04-22 00:48 28.30919 -81.81942 1932 ft 129 kts 225°
2026-04-22 00:48 28.30378 -81.82781 1991 ft 135 kts 229°
2026-04-22 00:49 28.29824 -81.83690 1917 ft 144 kts 230°
2026-04-22 00:49 28.29227 -81.84572 2043 ft 135 kts 223°
2026-04-22 00:49 28.28567 -81.85275 2117 ft 137 kts 216°
2026-04-22 00:49 28.27876 -81.86016 2184 ft 136 kts 213°
2026-04-22 00:50 28.27172 -81.86698 2105 ft 129 kts 208°
2026-04-22 00:50 28.26434 -81.87283 1907 ft 130 kts 205°
2026-04-22 00:50 28.25678 -81.87807 1773 ft 125 kts 202°
2026-04-22 00:50 28.24941 -81.88314 1631 ft 121 kts 198°
2026-04-22 00:51 28.24193 -81.88387 1556 ft 103 kts 154°
2026-04-22 00:51 28.23515 -81.88120 1517 ft 105 kts 142°
2026-04-22 00:51 28.22910 -81.87661 1434 ft 105 kts 135°
2026-04-22 00:51 28.22338 -81.87147 1326 ft 106 kts 131°
2026-04-22 00:52 28.21786 -81.86586 1193 ft 105 kts 130°
2026-04-22 00:52 28.21271 -81.86053 1196 ft 99 kts 129°
2026-04-22 00:52 28.20758 -81.85530 1216 ft 101 kts 129°
2026-04-22 00:52 28.20244 -81.84986 1217 ft 101 kts 129°
2026-04-22 00:53 28.19753 -81.84444 1259 ft 94 kts 124°
2026-04-22 00:53 28.19310 -81.83911 1246 ft 93 kts 124°
2026-04-22 00:53 28.18872 -81.83372 1255 ft 93 kts 124°
2026-04-22 00:53 28.18430 -81.82830 1270 ft 94 kts 127°
2026-04-22 00:54 28.17791 -81.82567 1280 ft 111 kts 172°
2026-04-22 00:54 28.17052 -81.82932 1288 ft 124 kts 214°
2026-04-22 00:54 28.16428 -81.83608 1322 ft 126 kts 221°
2026-04-22 00:54 28.15886 -81.84438 1224 ft 134 kts 229°
2026-04-22 00:55 28.15364 -81.85311 1188 ft 131 kts 229°
2026-04-22 00:55 28.14824 -81.86118 1252 ft 129 kts 231°
2026-04-22 00:55 28.13876 -81.87855 1321 ft 125 kts 230°
2026-04-22 00:56 28.13372 -81.88646 1379 ft 123 kts 226°
2026-04-22 00:56 28.12831 -81.89426 1346 ft 129 kts 225°
2026-04-22 00:56 28.12268 -81.90215 1275 ft 127 kts 223°
2026-04-22 00:56 28.11681 -81.90964 1167 ft 126 kts 221°
2026-04-22 00:57 28.11081 -81.91682 1136 ft 125 kts 219°
2026-04-22 00:57 28.10483 -81.92369 1168 ft 120 kts 218°
2026-04-22 00:57 28.09950 -81.93072 1184 ft 114 kts 226°
2026-04-22 00:57 28.09463 -81.93752 1197 ft 110 kts 223°
2026-04-22 00:58 28.08905 -81.94389 1203 ft 116 kts 213°
2026-04-22 00:58 28.08295 -81.94977 1244 ft 113 kts 209°
2026-04-22 00:58 28.07624 -81.95430 1201 ft 112 kts 184°
2026-04-22 00:58 28.06898 -81.95719 1244 ft 115 kts 210°
2026-04-22 00:59 28.06283 -81.96288 1284 ft 106 kts 195°
2026-04-22 00:59 28.05609 -81.96484 1265 ft 99 kts 176°
2026-04-22 00:59 28.04948 -81.96613 1186 ft 94 kts 178°
2026-04-22 00:59 28.04287 -81.96681 1115 ft 99 kts 173°
2026-04-22 01:00 28.03596 -81.96751 985 ft 101 kts 176°
2026-04-22 01:00 28.02923 -81.96829 848 ft 93 kts 175°
2026-04-22 01:00 28.02338 -81.96833 818 ft 68 kts 131°
2026-04-22 01:00 28.02114 -81.96367 927 ft 76 kts 92°
2026-04-22 01:01 28.02102 -81.95745 1083 ft 85 kts 85°
2026-04-22 01:01 28.02234 -81.95062 1250 ft 95 kts 73°
2026-04-22 01:01 28.02532 -81.94355 1359 ft 104 kts 64°
2026-04-22 01:01 28.02927 -81.93658 1479 ft 103 kts 51°
2026-04-22 01:02 28.03563 -81.93257 1719 ft 110 kts 37°
2026-04-22 01:02 28.03983 -81.92593 1794 ft 103 kts 68°
2026-04-22 01:02 28.04353 -81.91875 1867 ft 108 kts 64°
2026-04-22 01:02 28.04749 -81.91159 1974 ft 107 kts 59°
2026-04-22 01:03 28.05251 -81.90491 1970 ft 113 kts 54°
2026-04-22 01:03 28.05786 -81.89838 1951 ft 112 kts 53°
2026-04-22 01:03 28.06333 -81.89191 2043 ft 112 kts 58°
2026-04-22 01:03 28.06812 -81.88478 1971 ft 117 kts 51°
2026-04-22 01:04 28.07527 -81.88004 1858 ft 126 kts 27°
2026-04-22 01:04 28.08355 -81.87683 1797 ft 121 kts 32°
2026-04-22 01:04 28.09125 -81.87337 1743 ft 121 kts 26°
2026-04-22 01:04 28.09937 -81.87118 1686 ft 120 kts 13°
2026-04-22 01:05 28.10763 -81.87223 1688 ft 126 kts 340°
2026-04-22 01:05 28.11230 -81.88066 1731 ft 136 kts 268°
2026-04-22 01:05 28.10973 -81.88933 2055 ft 113 kts 254°
2026-04-22 01:05 28.10633 -81.89829 1917 ft 137 kts 246°
2026-04-22 01:06 28.10235 -81.90824 1700 ft 143 kts 239°
2026-04-22 01:06 28.09949 -81.91886 1595 ft 138 kts 252°
2026-04-22 01:06 28.09729 -81.92927 1443 ft 133 kts 252°
2026-04-22 01:06 28.09480 -81.93897 1277 ft 124 kts 251°
2026-04-22 01:07 28.09207 -81.94827 1230 ft 124 kts 248°
2026-04-22 01:07 28.08929 -81.95748 1201 ft 128 kts 246°
2026-04-22 01:07 28.08580 -81.96649 1127 ft 123 kts 237°
2026-04-22 01:07 28.08140 -81.97475 1122 ft 122 kts 233°
2026-04-22 01:08 28.07638 -81.98244 1164 ft 121 kts 229°
2026-04-22 01:08 28.07140 -81.98979 1239 ft 114 kts 224°
2026-04-22 01:08 28.06637 -81.99727 1235 ft 122 kts 226°
2026-04-22 01:08 28.06117 -82.00473 1215 ft 124 kts 229°
2026-04-22 01:09 28.05870 -82.01369 1179 ft 126 kts 295°
2026-04-22 01:09 28.06405 -82.01978 1299 ft 104 kts 358°
2026-04-22 01:09 28.07033 -82.01844 1472 ft 90 kts 36°
2026-04-22 01:09 28.07597 -82.01493 1511 ft 101 kts 34°
2026-04-22 01:10 28.08230 -82.01154 1535 ft 100 kts 37°
2026-04-22 01:10 28.08826 -82.00750 1561 ft 97 kts 39°
2026-04-22 01:10 28.09378 -82.00334 1612 ft 100 kts 42°
2026-04-22 01:10 28.09963 -81.99833 1555 ft 105 kts 48°
2026-04-22 01:11 28.10469 -81.99258 1581 ft 102 kts 57°
2026-04-22 01:11 28.10948 -81.98653 1601 ft 102 kts 58°
2026-04-22 01:11 28.11432 -81.98039 1598 ft 110 kts 54°
2026-04-22 01:11 28.11929 -81.97367 1473 ft 113 kts 57°
2026-04-22 01:12 28.12462 -81.96684 1345 ft 115 kts 56°
2026-04-22 01:12 28.12998 -81.96028 1219 ft 111 kts 54°
2026-04-22 01:12 28.13473 -81.95418 1190 ft 99 kts 52°
2026-04-22 01:12 28.13955 -81.94870 1193 ft 98 kts 51°
2026-04-22 01:13 28.14452 -81.94318 1199 ft 101 kts 49°
2026-04-22 01:13 28.14966 -81.93777 1189 ft 100 kts 48°
2026-04-22 01:13 28.15459 -81.93250 1188 ft 96 kts 51°
2026-04-22 01:13 28.15945 -81.92705 1191 ft 100 kts 57°
2026-04-22 01:14 28.16355 -81.92059 1191 ft 102 kts 57°
2026-04-22 01:14 28.16658 -81.91350 1201 ft 99 kts 71°
2026-04-22 01:14 28.16907 -81.90607 1202 ft 102 kts 70°
2026-04-22 01:14 28.17167 -81.89854 1200 ft 105 kts 70°
2026-04-22 01:15 28.17457 -81.89084 1199 ft 106 kts 70°
2026-04-22 01:15 28.17750 -81.88335 1196 ft 102 kts 69°
2026-04-22 01:15 28.17954 -81.87611 1190 ft 92 kts 84°
2026-04-22 01:15 28.18046 -81.86895 1193 ft 92 kts 82°
2026-04-22 01:16 28.18149 -81.86158 1194 ft 96 kts 82°
2026-04-22 01:16 28.18251 -81.85407 1206 ft 96 kts 82°
2026-04-22 01:16 28.18363 -81.84665 1173 ft 98 kts 79°
2026-04-22 01:16 28.18472 -81.83920 1155 ft 98 kts 82°
2026-04-22 01:17 28.18566 -81.83181 1179 ft 92 kts 84°
2026-04-22 01:17 28.18619 -81.82444 1202 ft 98 kts 90°
2026-04-22 01:17 28.18367 -81.81757 1308 ft 96 kts 120°
2026-04-22 01:17 28.17920 -81.81177 1288 ft 102 kts 125°
2026-04-22 01:18 28.17384 -81.80621 1314 ft 108 kts 139°
2026-04-22 01:18 28.16658 -81.80359 1315 ft 117 kts 163°
2026-04-22 01:18 28.15820 -81.80397 1206 ft 121 kts 173°
2026-04-22 01:18 28.15005 -81.80462 1241 ft 115 kts 173°
2026-04-22 01:19 28.14202 -81.80483 1271 ft 115 kts 168°
2026-04-22 01:19 28.13414 -81.80490 1270 ft 110 kts 169°
2026-04-22 01:19 28.12659 -81.80640 1343 ft 114 kts 198°
2026-04-22 01:19 28.11963 -81.81096 1401 ft 122 kts 208°
2026-04-22 01:20 28.11252 -81.81715 1299 ft 135 kts 210°
2026-04-22 01:20 28.10505 -81.82326 1273 ft 124 kts 203°
2026-04-22 01:20 28.09764 -81.82745 1289 ft 122 kts 216°
2026-04-22 01:20 28.09391 -81.83646 1254 ft 132 kts 257°
2026-04-22 01:21 28.09200 -81.84663 1227 ft 133 kts 255°
2026-04-22 01:21 28.08964 -81.85648 1278 ft 124 kts 247°
2026-04-22 01:21 28.08618 -81.86556 1235 ft 126 kts 241°
2026-04-22 01:21 28.08243 -81.87444 1230 ft 124 kts 246°
2026-04-22 01:22 28.08061 -81.88407 1230 ft 128 kts 261°
2026-04-22 01:22 28.08112 -81.89419 1232 ft 129 kts 283°
2026-04-22 01:22 28.08369 -81.90381 1233 ft 127 kts 290°
2026-04-22 01:22 28.08548 -81.91345 1203 ft 119 kts 277°
2026-04-22 01:23 28.08590 -81.92251 1159 ft 117 kts 265°
2026-04-22 01:23 28.08547 -81.93167 1124 ft 113 kts 268°
2026-04-22 01:23 28.08491 -81.94071 1174 ft 116 kts 263°
2026-04-22 01:23 28.08406 -81.95006 1214 ft 123 kts 260°
2026-04-22 01:24 28.08288 -81.95971 1199 ft 124 kts 258°
2026-04-22 01:24 28.08125 -81.96924 1132 ft 122 kts 250°
2026-04-22 01:24 28.07870 -81.97834 1167 ft 120 kts 242°
2026-04-22 01:24 28.07432 -81.98629 1179 ft 120 kts 230°
2026-04-22 01:25 28.06935 -81.99387 1186 ft 116 kts 225°
2026-04-22 01:25 28.06446 -82.00119 1193 ft 117 kts 224°
2026-04-22 01:25 28.05933 -82.00826 1182 ft 117 kts 226°
2026-04-22 01:25 28.05416 -82.01532 1185 ft 117 kts 226°
2026-04-22 01:26 28.04937 -82.02281 1260 ft 119 kts 226°
2026-04-22 01:26 28.04343 -82.02329 1285 ft 91 kts 159°
2026-04-22 01:26 28.03672 -82.02294 1164 ft 97 kts 169°
2026-04-22 01:26 28.03011 -82.02304 1092 ft 93 kts 179°
2026-04-22 01:27 28.02361 -82.02350 1084 ft 95 kts 168°
2026-04-22 01:27 28.01718 -82.02276 1074 ft 94 kts 163°
2026-04-22 01:27 28.01277 -82.02240 1030 ft 97 kts 167°
2026-04-22 01:27 28.00671 -82.01684 891 ft 86 kts 109°
2026-04-22 01:28 28.00570 -82.01255 772 ft 82 kts 99°
2026-04-22 01:28 28.00422 -82.00696 689 ft 69 kts 109°
2026-04-22 01:28 28.00395 -82.00128 903 ft 77 kts 77°
2026-04-22 01:28 28.00626 -81.99566 1124 ft 80 kts 65°
2026-04-22 01:29 28.00921 -81.99024 1368 ft 85 kts 63°
2026-04-22 01:29 28.01313 -81.98418 1373 ft 105 kts 58°
2026-04-22 01:29 28.01759 -81.97716 1367 ft 111 kts 59°
2026-04-22 01:29 28.02202 -81.97005 1354 ft 111 kts 60°
2026-04-22 01:30 28.02613 -81.96279 1262 ft 108 kts 62°
2026-04-22 01:30 28.02974 -81.95536 1177 ft 109 kts 64°
2026-04-22 01:30 28.03331 -81.94768 1166 ft 110 kts 65°
2026-04-22 01:30 28.03723 -81.94043 1160 ft 103 kts 63°
2026-04-22 01:31 28.04117 -81.93357 1151 ft 103 kts 67°
2026-04-22 01:31 28.04442 -81.92670 1208 ft 98 kts 64°
2026-04-22 01:31 28.04858 -81.92003 1117 ft 109 kts 42°
2026-04-22 01:31 28.05425 -81.91500 1161 ft 105 kts 43°
2026-04-22 01:32 28.06035 -81.91024 1193 ft 109 kts 42°
2026-04-22 01:32 28.06713 -81.90608 1179 ft 115 kts 28°
2026-04-22 01:32 28.07506 -81.90656 1151 ft 125 kts 343°
2026-04-22 01:32 28.08101 -81.91364 1253 ft 127 kts 297°
2026-04-22 01:33 28.08485 -81.92266 1215 ft 123 kts 295°
2026-04-22 01:33 28.08791 -81.93128 1161 ft 118 kts 284°
2026-04-22 01:33 28.09190 -81.93868 1207 ft 110 kts 341°
2026-04-22 01:33 28.09946 -81.94056 1361 ft 113 kts 11°
2026-04-22 01:34 28.10743 -81.93990 1501 ft 116 kts 19°
2026-04-22 01:34 28.11542 -81.93814 1523 ft 119 kts 23°
2026-04-22 01:34 28.12290 -81.93473 1462 ft 119 kts 38°
2026-04-22 01:34 28.12990 -81.92963 1378 ft 119 kts 46°
2026-04-22 01:35 28.13637 -81.92379 1300 ft 115 kts 52°
2026-04-22 01:35 28.14125 -81.91711 1306 ft 107 kts 60°
2026-04-22 01:35 28.14530 -81.90984 1235 ft 113 kts 65°
2026-04-22 01:35 28.14944 -81.90225 1210 ft 114 kts 64°
2026-04-22 01:36 28.15309 -81.89443 1197 ft 111 kts 65°
2026-04-22 01:36 28.15676 -81.88686 1253 ft 110 kts 67°
2026-04-22 01:36 28.16081 -81.87921 1241 ft 115 kts 64°
2026-04-22 01:36 28.16498 -81.87157 1194 ft 111 kts 62°
2026-04-22 01:37 28.16906 -81.86438 1184 ft 106 kts 63°
2026-04-22 01:37 28.17174 -81.85667 1168 ft 109 kts 82°
2026-04-22 01:37 28.17268 -81.84812 1177 ft 106 kts 83°
2026-04-22 01:37 28.17365 -81.83978 1160 ft 107 kts 81°
2026-04-22 01:38 28.17390 -81.83142 1170 ft 106 kts 93°
2026-04-22 01:38 28.17247 -81.82318 1135 ft 109 kts 103°
2026-04-22 01:38 28.16912 -81.81572 1153 ft 107 kts 120°
2026-04-22 01:38 28.16407 -81.80934 1125 ft 108 kts 123°
2026-04-22 01:39 28.15807 -81.80423 1191 ft 114 kts 148°
2026-04-22 01:39 28.15003 -81.80170 1182 ft 126 kts 159°
2026-04-22 01:39 28.14151 -81.80017 1236 ft 125 kts 165°
2026-04-22 01:39 28.13278 -81.79963 1281 ft 126 kts 168°
2026-04-22 01:40 28.12389 -81.79995 1272 ft 128 kts 173°
2026-04-22 01:40 28.11494 -81.80048 1211 ft 129 kts 176°
2026-04-22 01:40 28.10582 -81.80117 1193 ft 132 kts 178°
2026-04-22 01:40 28.09708 -81.80438 1221 ft 136 kts 208°
2026-04-22 01:41 28.08959 -81.81067 1195 ft 134 kts 209°
2026-04-22 01:41 28.08228 -81.81669 1242 ft 131 kts 229°
2026-04-22 01:41 28.07736 -81.82590 1252 ft 140 kts 238°
2026-04-22 01:41 28.07300 -81.83581 1232 ft 140 kts 249°
2026-04-22 01:42 28.07023 -81.84638 1177 ft 141 kts 250°
2026-04-22 01:42 28.06707 -81.85712 1088 ft 148 kts 252°
2026-04-22 01:42 28.06538 -81.86798 1207 ft 136 kts 275°
2026-04-22 01:42 28.06728 -81.87820 1181 ft 134 kts 285°
2026-04-22 01:43 28.06998 -81.88848 1108 ft 135 kts 293°
2026-04-22 01:43 28.07293 -81.89829 1137 ft 130 kts 291°
2026-04-22 01:43 28.07625 -81.90769 1188 ft 128 kts 292°
2026-04-22 01:43 28.08004 -81.91696 1153 ft 132 kts 300°
2026-04-22 01:44 28.08475 -81.92593 1121 ft 133 kts 303°
2026-04-22 01:44 28.08861 -81.93513 1152 ft 131 kts 288°
2026-04-22 01:44 28.09031 -81.94500 1187 ft 124 kts 273°
2026-04-22 01:44 28.09019 -81.95495 1142 ft 128 kts 258°
2026-04-22 01:45 28.08645 -81.96409 1152 ft 126 kts 230°
2026-04-22 01:45 28.08138 -81.97244 1135 ft 132 kts 227°
2026-04-22 01:45 28.07603 -81.98084 1143 ft 131 kts 229°
2026-04-22 01:45 28.07027 -81.98877 1138 ft 130 kts 226°
2026-04-22 01:46 28.06461 -81.99672 1141 ft 127 kts 225°
2026-04-22 01:46 28.05946 -82.00432 1266 ft 120 kts 225°
2026-04-22 01:46 28.05419 -82.01180 1258 ft 122 kts 220°
2026-04-22 01:46 28.04761 -82.01639 1246 ft 103 kts 176°
2026-04-22 01:47 28.04058 -82.01692 1190 ft 102 kts 175°
2026-04-22 01:47 28.03368 -82.01791 1130 ft 98 kts 178°
2026-04-22 01:47 28.02704 -82.01890 1125 ft 95 kts 178°
2026-04-22 01:47 28.02049 -82.01969 1142 ft 91 kts 174°
2026-04-22 01:48 28.01420 -82.02050 1127 ft 94 kts 178°
2026-04-22 01:48 28.00837 -82.02365 1079 ft 107 kts 246°
2026-04-22 01:48 28.00731 -82.03199 986 ft 106 kts 242°
2026-04-22 01:48 28.00185 -82.03533 806 ft 88 kts 174°
2026-04-22 01:49 27.99569 -82.03574 630 ft 91 kts 171°
2026-04-22 01:49 27.99072 -82.03407 358 ft 68 kts 104°
2026-04-22 01:49 27.99038 -82.02847 215 ft 75 kts 89°
2026-04-22 01:49 27.99038 -82.02317 145 ft 54 kts 91°
2026-04-22 01:50 27.99037 -82.02037 138 ft 21 kts 91°
2026-04-22 01:50 27.99028 -82.01861 140 ft 23 kts 88°
2026-04-22 01:50 27.99042 -82.01677 139 ft 25 kts 94°
2026-04-22 01:50 27.99060 -82.01549 139 ft 15 kts 30°
2026-04-22 01:51 27.99175 -82.01541 140 ft 12 kts 338°
2026-04-22 01:51 27.99220 -82.01591 140 ft 5 kts 223°
2026-04-22 01:51 27.99213 -82.01597 140 ft 0 kts 214°